Home   Weather   Monterey   Past weeks

Flag for USA Past Weather in Monterey, California, USA — Yesterday and Last 2 Weeks

59 °F

Light rain. Overcast.

Feels Like: 58 °F
Forecast: 61 / 65 °F
Wind: 6 mph from Southeast

Location: Monterey Peninsula Airport

Current Time: Oct 27, 2016 at 9:40:48 PM

Latest Report: Oct 27, 2016 at 8:54 PM

Visibility: 7 mi

Pressure: 29.98 "Hg

Humidity: 93%

Dew Point: 57 °F

Location of MontereyLocation

Past Weather in Monterey — Graph


Monterey Temperature Yesterday

Maximum temperature yesterday: 66 °F (at 4:54 PM)
Minimum temperature yesterday: 51 °F (at 2:54 AM)
Average temperature yesterday: 57 °F

High & Low Weather Summary for the Past Weeks

High78 °F (Oct 20, 11:54 AM)100% (Oct 15, 6:54 AM)30.23 "Hg (Oct 15, 6:54 AM)
Low48 °F (Oct 13, 5:54 AM)25% (Oct 20, 11:54 AM)29.84 "Hg (Oct 16, 2:54 PM)
Average60 °F80%30.04 "Hg
* Reported Oct 12 7:54 PM — Oct 27 7:54 PM, Monterey, Weather by CustomWeather, © 2016

Note: Actual official high and low records may vary slightly from our data, if they occured in-between our weather recording intervals... More about our weather records


Monterey Weather History for the Previous 24 Hours

Scroll right to see more
Time TempWeatherWind HumidityBarometerVisibility
7:54 PM
Thu, Oct 27
59 °FLight rain. Overcast.6 mph93%29.98 "Hg10 mi
6:54 PM60 °FLight rain. Overcast.3 mph86%30.00 "Hg10 mi
5:54 PM63 °FScattered clouds.6 mph70%29.96 "Hg10 mi
4:54 PM63 °FOvercast.5 mph70%29.98 "Hg10 mi
3:54 PM63 °FOvercast.5 mph75%29.98 "Hg10 mi
2:54 PM64 °FBroken clouds.No wind73%29.97 "Hg10 mi
1:54 PM63 °FMostly cloudy.8 mph70%29.99 "Hg10 mi
12:54 PM63 °FOvercast.3 mph73%29.98 "Hg10 mi
11:54 AM63 °FMostly cloudy.No wind78%29.98 "Hg10 mi
10:54 AM61 °FOvercast.No wind83%30.01 "Hg10 mi
9:54 AM59 °FOvercast.6 mph90%30.04 "Hg10 mi
8:54 AM59 °FOvercast.No wind84%30.03 "Hg10 mi
7:54 AM58 °FPartly sunny.3 mph87%30.03 "Hg10 mi
6:54 AM58 °FPartly cloudy.8 mph87%30.02 "Hg10 mi
6:04 AM60 °FMostly cloudy.6 mph86%29.97 "Hg10 mi
5:54 AM59 °FOvercast.6 mph87%30.00 "Hg10 mi
4:54 AM57 °FPassing clouds.No wind87%29.96 "Hg10 mi
3:54 AM56 °FPassing clouds.No wind90%29.98 "Hg10 mi
2:54 AM56 °FClear.8 mph87%29.99 "Hg10 mi
1:54 AM57 °FClear.5 mph83%30.02 "Hg10 mi
12:54 AM55 °FClear.5 mph90%30.03 "Hg10 mi
11:54 PM
Wed, Oct 26
54 °FClear.3 mph93%30.04 "Hg10 mi
10:54 PM54 °FClear.No wind93%30.05 "Hg10 mi
9:54 PM55 °FClear.5 mph93%30.05 "Hg10 mi
Weather by CustomWeather, © 2016

See weather overviewHow to use our weather pages